Time,TemperatureF,DewpointF,PressureIn,WindDirection,WindDirectionDegrees,WindSpeedMPH,WindSpeedGustMPH,Humidity,HourlyPrecipIn,Conditions,Clouds,dailyrainin,SoftwareType,DateUTC
2013-06-17 00:02:00,66.7,60.0,29.83,SW,224,7.0,11.0,80,0.00,,,0.00,weatherlink.com 1.10,2013-06-17 04:02:00,
2013-06-17 00:17:00,66.7,60.0,29.83,SSW,206,5.0,10.0,80,0.00,,,0.00,weatherlink.com 1.10,2013-06-17 04:17:00,
2013-06-17 00:32:00,66.4,60.0,29.82,SW,221,10.0,10.0,81,0.00,,,0.00,weatherlink.com 1.10,2013-06-17 04:32:00,
2013-06-17 00:47:00,66.8,61.0,29.82,SW,226,12.0,14.0,81,0.00,,,0.00,weatherlink.com 1.10,2013-06-17 04:47:00,
2013-06-17 01:02:00,67.2,61.0,29.82,SW,224,8.0,16.0,80,0.00,,,0.00,weatherlink.com 1.10,2013-06-17 05:02:00,
2013-06-17 01:17:00,67.4,61.0,29.81,SW,217,7.0,12.0,80,0.00,,,0.00,weatherlink.com 1.10,2013-06-17 05:17:00,
2013-06-17 01:32:00,67.3,61.0,29.81,SW,228,4.0,10.0,80,0.00,,,0.00,weatherlink.com 1.10,2013-06-17 05:32:00,
2013-06-17 01:47:00,66.8,61.0,29.81,SSW,207,4.0,7.0,81,0.00,,,0.00,weatherlink.com 1.10,2013-06-17 05:47:00,
2013-06-17 02:02:00,66.3,61.0,29.82,NW,321,3.0,4.0,82,0.00,,,0.00,weatherlink.com 1.10,2013-06-17 06:02:00,
2013-06-17 02:17:00,65.6,60.0,29.82,SSW,203,1.0,4.0,83,0.00,,,0.00,weatherlink.com 1.10,2013-06-17 06:17:00,
2013-06-17 02:32:00,65.0,60.0,29.82,SW,216,2.0,2.0,83,0.00,,,0.00,weatherlink.com 1.10,2013-06-17 06:32:00,
2013-06-17 02:47:00,64.3,59.0,29.83,SSW,197,1.0,1.0,84,0.00,,,0.00,weatherlink.com 1.10,2013-06-17 06:47:00,
2013-06-17 03:02:00,63.9,59.0,29.83,SSW,198,0.0,1.0,84,0.00,,,0.00,weatherlink.com 1.10,2013-06-17 07:02:00,
2013-06-17 03:17:00,63.4,59.0,29.83,SSW,198,0.0,1.0,84,0.00,,,0.00,weatherlink.com 1.10,2013-06-17 07:17:00,
2013-06-17 03:32:00,62.9,58.0,29.83,South,190,0.0,0.0,84,0.00,,,0.00,weatherlink.com 1.10,2013-06-17 07:32:00,
2013-06-17 03:47:00,62.2,58.0,29.83,South,190,0.0,0.0,85,0.00,,,0.00,weatherlink.com 1.10,2013-06-17 07:47:00,
2013-06-17 04:02:00,61.8,57.0,29.83,SE,142,0.0,0.0,85,0.00,,,0.00,weatherlink.com 1.10,2013-06-17 08:02:00,
2013-06-17 04:18:00,61.8,57.0,29.83,SSE,156,0.0,2.0,85,0.00,,,0.00,weatherlink.com 1.10,2013-06-17 08:18:00,
2013-06-17 04:33:00,62.5,58.0,29.83,South,172,0.0,3.0,86,0.00,,,0.00,weatherlink.com 1.10,2013-06-17 08:33:00,
2013-06-17 04:48:00,62.6,58.0,29.83,SSE,156,0.0,1.0,86,0.00,,,0.00,weatherlink.com 1.10,2013-06-17 08:48:00,
2013-06-17 05:03:00,62.7,59.0,29.84,SSW,198,2.0,3.0,86,0.00,,,0.00,weatherlink.com 1.10,2013-06-17 09:03:00,
2013-06-17 05:18:00,62.5,58.0,29.84,SSW,205,0.0,3.0,86,0.00,,,0.00,weatherlink.com 1.10,2013-06-17 09:18:00,
2013-06-17 05:33:00,62.7,59.0,29.84,SE,143,0.0,2.0,86,0.00,,,0.00,weatherlink.com 1.10,2013-06-17 09:33:00,
2013-06-17 05:48:00,62.8,59.0,29.84,SSW,207,1.0,3.0,86,0.00,,,0.00,weatherlink.com 1.10,2013-06-17 09:48:00,
2013-06-17 06:03:00,62.8,59.0,29.84,SSE,159,2.0,4.0,86,0.00,,,0.00,weatherlink.com 1.10,2013-06-17 10:03:00,
2013-06-17 06:18:00,63.0,59.0,29.85,SW,228,2.0,5.0,86,0.00,,,0.00,weatherlink.com 1.10,2013-06-17 10:18:00,
2013-06-17 06:33:00,63.7,60.0,29.85,SW,216,2.0,3.0,86,0.00,,,0.00,weatherlink.com 1.10,2013-06-17 10:33:00,
2013-06-17 06:48:00,64.3,60.0,29.86,SSW,195,4.0,5.0,85,0.00,,,0.00,weatherlink.com 1.10,2013-06-17 10:48:00,
2013-06-17 07:03:00,65.0,60.0,29.86,SSE,160,4.0,4.0,85,0.00,,,0.00,weatherlink.com 1.10,2013-06-17 11:03:00,
2013-06-17 07:18:00,65.6,61.0,29.87,South,188,5.0,8.0,84,0.00,,,0.00,weatherlink.com 1.10,2013-06-17 11:18:00,
2013-06-17 07:33:00,66.1,61.0,29.87,SSW,205,4.0,10.0,82,0.00,,,0.00,weatherlink.com 1.10,2013-06-17 11:33:00,
2013-06-17 07:48:00,67.0,61.0,29.87,SW,222,4.0,9.0,81,0.00,,,0.00,weatherlink.com 1.10,2013-06-17 11:48:00,
2013-06-17 08:03:00,67.8,61.0,29.88,SSW,198,3.0,10.0,78,0.00,,,0.00,weatherlink.com 1.10,2013-06-17 12:03:00,
2013-06-17 08:18:00,68.3,60.0,29.87,SSW,193,5.0,11.0,76,0.00,,,0.00,weatherlink.com 1.10,2013-06-17 12:18:00,
2013-06-17 08:33:00,69.1,61.0,29.87,SSW,204,4.0,9.0,75,0.00,,,0.00,weatherlink.com 1.10,2013-06-17 12:33:00,
2013-06-17 08:48:00,70.2,61.0,29.87,SW,228,6.0,10.0,72,0.00,,,0.00,weatherlink.com 1.10,2013-06-17 12:48:00,
2013-06-17 09:03:00,70.5,61.0,29.86,SW,228,10.0,12.0,72,0.00,,,0.00,weatherlink.com 1.10,2013-06-17 13:03:00,
2013-06-17 09:18:00,71.3,61.0,29.86,SSW,207,4.0,10.0,71,0.00,,,0.00,weatherlink.com 1.10,2013-06-17 13:18:00,
2013-06-17 09:33:00,72.1,61.0,29.87,SW,232,6.0,10.0,69,0.00,,,0.00,weatherlink.com 1.10,2013-06-17 13:33:00,
2013-06-17 09:48:00,72.8,62.0,29.86,SW,236,8.0,8.0,68,0.00,,,0.00,weatherlink.com 1.10,2013-06-17 13:48:00,
2013-06-17 10:03:00,71.9,61.0,29.86,SSW,197,6.0,10.0,69,0.00,,,0.00,weatherlink.com 1.10,2013-06-17 14:03:00,
2013-06-17 10:33:00,72.4,62.0,29.87,WSW,238,4.0,14.0,69,0.00,,,0.00,weatherlink.com 1.10,2013-06-17 14:33:00,
2013-06-17 10:48:00,72.6,61.0,29.87,SW,226,9.0,12.0,67,0.00,,,0.00,weatherlink.com 1.10,2013-06-17 14:48:00,
2013-06-17 11:03:00,73.1,61.0,29.88,South,181,8.0,14.0,66,0.00,,,0.00,weatherlink.com 1.10,2013-06-17 15:03:00,
2013-06-17 11:18:00,73.7,62.0,29.88,SW,224,5.0,14.0,66,0.00,,,0.00,weatherlink.com 1.10,2013-06-17 15:18:00,
2013-06-17 11:34:00,74.5,61.0,29.89,SSW,204,7.0,12.0,64,0.00,,,0.00,weatherlink.com 1.10,2013-06-17 15:34:00,
2013-06-17 11:49:00,75.2,62.0,29.89,SSW,210,7.0,14.0,64,0.00,,,0.00,weatherlink.com 1.10,2013-06-17 15:49:00,
2013-06-17 12:04:00,75.9,62.0,29.89,SSW,197,6.0,13.0,62,0.00,,,0.00,weatherlink.com 1.10,2013-06-17 16:04:00,
2013-06-17 12:19:00,76.7,62.0,29.89,South,190,11.0,14.0,61,0.00,,,0.00,weatherlink.com 1.10,2013-06-17 16:19:00,
2013-06-17 12:34:00,77.1,62.0,29.89,SSW,204,7.0,15.0,59,0.00,,,0.00,weatherlink.com 1.10,2013-06-17 16:34:00,
2013-06-17 12:49:00,77.6,61.0,29.89,SW,215,3.0,15.0,57,0.00,,,0.00,weatherlink.com 1.10,2013-06-17 16:49:00,
2013-06-17 13:04:00,78.5,62.0,29.88,SW,235,4.0,14.0,58,0.00,,,0.00,weatherlink.com 1.10,2013-06-17 17:04:00,
2013-06-17 13:19:00,79.1,61.0,29.88,WSW,246,4.0,13.0,55,0.00,,,0.00,weatherlink.com 1.10,2013-06-17 17:19:00,
2013-06-17 13:34:00,79.9,60.0,29.88,SW,224,8.0,12.0,51,0.00,,,0.00,weatherlink.com 1.10,2013-06-17 17:34:00,
2013-06-17 13:49:00,78.8,59.0,29.88,SW,233,2.0,13.0,51,0.00,,,0.00,weatherlink.com 1.10,2013-06-17 17:49:00,
2013-06-17 14:04:00,79.9,57.0,29.88,WSW,242,5.0,8.0,46,0.00,,,0.00,weatherlink.com 1.10,2013-06-17 18:04:00,
2013-06-17 14:19:00,80.3,56.0,29.88,WSW,249,5.0,15.0,43,0.00,,,0.00,weatherlink.com 1.10,2013-06-17 18:19:00,
2013-06-17 14:34:00,80.2,60.0,29.88,SE,146,6.0,13.0,51,0.00,,,0.00,weatherlink.com 1.10,2013-06-17 18:34:00,
2013-06-17 14:49:00,81.5,55.0,29.88,NNW,343,2.0,10.0,40,0.00,,,0.00,weatherlink.com 1.10,2013-06-17 18:49:00,
2013-06-17 15:04:00,81.7,54.0,29.88,NNW,335,9.0,12.0,39,0.00,,,0.00,weatherlink.com 1.10,2013-06-17 19:04:00,
2013-06-17 15:19:00,78.9,59.0,29.88,SW,226,6.0,12.0,51,0.00,,,0.00,weatherlink.com 1.10,2013-06-17 19:19:00,
2013-06-17 15:34:00,77.1,60.0,29.88,SW,217,6.0,12.0,55,0.00,,,0.00,weatherlink.com 1.10,2013-06-17 19:34:00,
2013-06-17 15:49:00,78.8,61.0,29.88,WSW,238,7.0,7.0,54,0.00,,,0.00,weatherlink.com 1.10,2013-06-17 19:49:00,
2013-06-17 16:04:00,78.0,59.0,29.88,SW,214,6.0,11.0,52,0.00,,,0.00,weatherlink.com 1.10,2013-06-17 20:04:00,
2013-06-17 16:19:00,76.9,58.0,29.88,SSW,207,7.0,12.0,53,0.00,,,0.00,weatherlink.com 1.10,2013-06-17 20:19:00,
2013-06-17 16:34:00,77.4,57.0,29.88,SSW,212,9.0,20.0,50,0.00,,,0.00,weatherlink.com 1.10,2013-06-17 20:34:00,
2013-06-17 16:49:00,76.8,57.0,29.88,SSW,197,5.0,17.0,51,0.00,,,0.00,weatherlink.com 1.10,2013-06-17 20:49:00,
2013-06-17 17:04:00,76.9,58.0,29.88,SW,225,8.0,13.0,52,0.00,,,0.00,weatherlink.com 1.10,2013-06-17 21:04:00,
2013-06-17 17:19:00,77.9,57.0,29.88,SW,236,2.0,10.0,48,0.00,,,0.00,weatherlink.com 1.10,2013-06-17 21:19:00,
2013-06-17 17:34:00,78.4,57.0,29.87,SW,226,7.0,11.0,48,0.00,,,0.00,weatherlink.com 1.10,2013-06-17 21:34:00,
2013-06-17 17:49:00,78.2,57.0,29.87,SW,225,7.0,11.0,48,0.00,,,0.00,weatherlink.com 1.10,2013-06-17 21:49:00,
2013-06-17 18:04:00,77.8,55.0,29.87,SW,219,6.0,12.0,46,0.00,,,0.00,weatherlink.com 1.10,2013-06-17 22:04:00,
2013-06-17 18:20:00,77.8,56.0,29.86,SW,236,2.0,9.0,48,0.00,,,0.00,weatherlink.com 1.10,2013-06-17 22:20:00,
2013-06-17 18:34:00,77.5,57.0,29.86,SW,231,3.0,6.0,50,0.00,,,0.00,weatherlink.com 1.10,2013-06-17 22:34:00,
2013-06-17 18:49:00,78.4,58.0,29.86,SW,232,7.0,7.0,49,0.00,,,0.00,weatherlink.com 1.10,2013-06-17 22:49:00,
2013-06-17 19:04:00,77.8,58.0,29.87,SSW,205,3.0,6.0,50,0.00,,,0.00,weatherlink.com 1.10,2013-06-17 23:04:00,
2013-06-17 19:19:00,77.1,58.0,29.86,WSW,246,4.0,8.0,51,0.00,,,0.00,weatherlink.com 1.10,2013-06-17 23:19:00,
2013-06-17 19:34:00,77.5,58.0,29.87,WSW,249,2.0,3.0,52,0.00,,,0.00,weatherlink.com 1.10,2013-06-17 23:34:00,
2013-06-17 19:49:00,77.6,58.0,29.87,SW,226,0.0,4.0,52,0.00,,,0.00,weatherlink.com 1.10,2013-06-17 23:49:00,
2013-06-17 20:04:00,76.2,57.0,29.88,North,352,9.0,9.0,52,0.00,,,0.00,weatherlink.com 1.10,2013-06-18 00:04:00,
2013-06-17 20:20:00,75.0,57.0,29.88,NNE,26,2.0,7.0,53,0.00,,,0.00,weatherlink.com 1.10,2013-06-18 00:20:00,
2013-06-17 20:35:00,73.9,57.0,29.88,NNE,27,4.0,8.0,56,0.00,,,0.00,weatherlink.com 1.10,2013-06-18 00:35:00,
2013-06-17 20:50:00,72.8,57.0,29.89,NE,43,1.0,5.0,58,0.00,,,0.00,weatherlink.com 1.10,2013-06-18 00:50:00,
2013-06-17 21:05:00,71.9,57.0,29.89,NNW,331,1.0,6.0,59,0.00,,,0.00,weatherlink.com 1.10,2013-06-18 01:05:00,
2013-06-17 21:19:00,71.1,57.0,29.89,NNE,27,1.0,4.0,62,0.00,,,0.00,weatherlink.com 1.10,2013-06-18 01:19:00,
2013-06-17 21:34:00,70.3,57.0,29.90,East,91,2.0,3.0,63,0.00,,,0.00,weatherlink.com 1.10,2013-06-18 01:34:00,
2013-06-17 21:49:00,69.7,57.0,29.90,ESE,113,3.0,3.0,64,0.00,,,0.00,weatherlink.com 1.10,2013-06-18 01:49:00,
2013-06-17 22:04:00,69.0,57.0,29.91,ENE,70,2.0,3.0,65,0.00,,,0.00,weatherlink.com 1.10,2013-06-18 02:04:00,
2013-06-17 22:19:00,68.4,57.0,29.91,North,11,0.0,2.0,66,0.00,,,0.00,weatherlink.com 1.10,2013-06-18 02:19:00,
2013-06-17 22:34:00,67.8,56.0,29.92,NNW,343,1.0,1.0,67,0.00,,,0.00,weatherlink.com 1.10,2013-06-18 02:34:00,
2013-06-17 22:49:00,67.8,57.0,29.91,NNE,33,0.0,3.0,68,0.00,,,0.00,weatherlink.com 1.10,2013-06-18 02:49:00,
2013-06-17 23:04:00,67.4,56.0,29.91,NNW,335,1.0,3.0,68,0.00,,,0.00,weatherlink.com 1.10,2013-06-18 03:04:00,
2013-06-17 23:19:00,67.5,57.0,29.92,NNW,328,3.0,6.0,68,0.00,,,0.00,weatherlink.com 1.10,2013-06-18 03:19:00,
2013-06-17 23:34:00,67.5,56.0,29.91,NNW,335,1.0,3.0,67,0.00,,,0.00,weatherlink.com 1.10,2013-06-18 03:34:00,
2013-06-17 23:49:00,67.3,56.0,29.93,North,352,0.0,3.0,67,0.00,,,0.00,weatherlink.com 1.10,2013-06-18 03:49:00,